TimePST,TemperatureF,Dew PointF,Humidity,Sea Level PressureIn,VisibilityMPH,Wind Direction,Wind SpeedMPH,Gust SpeedMPH,PrecipitationIn,Events,Conditions,WindDirDegrees,DateUTC
12:22 AM,44.6,42.8,93,30.01,0.2,Calm,Calm,-,N/A,Fog,Fog,0,2012-11-15 08:22:00
12:29 AM,44.6,42.8,93,30.01,0.5,Calm,Calm,-,N/A,Fog,Fog,0,2012-11-15 08:29:00
12:49 AM,42.8,41.0,93,30.01,1.8,Calm,Calm,-,N/A,,Overcast,0,2012-11-15 08:49:00
12:51 AM,42.8,41.0,93,30.00,4.0,Calm,Calm,-,N/A,,Overcast,0,2012-11-15 08:51:00
12:53 AM,43.0,41.0,93,29.99,6.0,Calm,Calm,-,N/A,,Mostly Cloudy,0,2012-11-15 08:53:00
12:59 AM,42.8,39.2,87,30.00,1.5,Calm,Calm,-,N/A,,Mostly Cloudy,0,2012-11-15 08:59:00
1:12 AM,42.8,39.2,87,30.00,0.8,Calm,Calm,-,N/A,,Mist,0,2012-11-15 09:12:00
1:28 AM,41.0,39.2,93,30.00,0.2,Calm,Calm,-,N/A,Fog,Fog,0,2012-11-15 09:28:00
1:39 AM,41.0,39.2,93,30.00,0.5,Calm,Calm,-,N/A,Fog,Fog,0,2012-11-15 09:39:00
1:53 AM,41.0,39.9,96,29.98,0.5,Calm,Calm,-,N/A,Fog,Fog,0,2012-11-15 09:53:00
2:53 AM,41.0,39.9,96,29.98,0.8,Calm,Calm,-,N/A,,Clear,0,2012-11-15 10:53:00
3:04 AM,42.8,39.2,87,29.99,0.5,Calm,Calm,-,N/A,Fog,Fog,0,2012-11-15 11:04:00
3:53 AM,39.9,39.0,97,29.96,0.5,Calm,Calm,-,N/A,Fog,Fog,0,2012-11-15 11:53:00
4:19 AM,41.0,39.2,93,29.98,1.0,SE,3.5,-,N/A,,Mist,140,2012-11-15 12:19:00
4:28 AM,41.0,39.2,93,29.98,0.8,Calm,Calm,-,N/A,,Mist,0,2012-11-15 12:28:00
4:35 AM,41.0,39.2,93,29.98,2.0,Calm,Calm,-,N/A,,Mostly Cloudy,0,2012-11-15 12:35:00
4:47 AM,42.8,39.2,87,29.98,2.0,Calm,Calm,-,N/A,,Scattered Clouds,0,2012-11-15 12:47:00
4:53 AM,41.0,39.9,96,29.96,4.0,Calm,Calm,-,N/A,,Scattered Clouds,0,2012-11-15 12:53:00
5:03 AM,39.2,39.2,100,29.98,2.0,Calm,Calm,-,N/A,,Mostly Cloudy,0,2012-11-15 13:03:00
5:14 AM,41.0,39.2,93,29.97,0.8,Calm,Calm,-,N/A,,Mist,0,2012-11-15 13:14:00
5:34 AM,39.2,39.2,100,29.98,0.2,Calm,Calm,-,N/A,Fog,Fog,0,2012-11-15 13:34:00
5:53 AM,39.0,37.9,96,29.96,0.2,Calm,Calm,-,N/A,Fog,Fog,0,2012-11-15 13:53:00
6:00 AM,37.4,37.4,100,29.98,0.8,Calm,Calm,-,N/A,,Mist,0,2012-11-15 14:00:00
6:11 AM,37.4,37.4,100,29.98,0.2,Calm,Calm,-,N/A,Fog,Fog,0,2012-11-15 14:11:00
6:17 AM,39.2,37.4,93,29.99,0.5,Calm,Calm,-,N/A,Fog,Fog,0,2012-11-15 14:17:00
6:27 AM,39.2,37.4,93,29.99,1.2,Calm,Calm,-,N/A,,Partly Cloudy,0,2012-11-15 14:27:00
6:45 AM,37.4,35.6,93,29.99,0.8,Calm,Calm,-,N/A,,Mist,0,2012-11-15 14:45:00
6:53 AM,37.9,37.0,97,29.98,10.0,Calm,Calm,-,N/A,Fog,Patches of Fog,0,2012-11-15 14:53:00
7:53 AM,42.1,41.0,96,29.99,10.0,Calm,Calm,-,N/A,Fog,Patches of Fog,0,2012-11-15 15:53:00
8:53 AM,48.9,46.9,93,30.00,10.0,Calm,Calm,-,N/A,,Mostly Cloudy,0,2012-11-15 16:53:00
9:53 AM,55.0,50.0,83,30.01,10.0,Calm,Calm,-,N/A,,Mostly Cloudy,0,2012-11-15 17:53:00
10:53 AM,61.0,50.0,67,29.99,10.0,Variable,4.6,-,N/A,,Scattered Clouds,0,2012-11-15 18:53:00
11:53 AM,64.9,48.9,56,29.96,10.0,Calm,Calm,-,N/A,,Scattered Clouds,0,2012-11-15 19:53:00
12:53 PM,66.9,48.9,52,29.94,10.0,South,8.1,-,N/A,,Mostly Cloudy,180,2012-11-15 20:53:00
1:53 PM,68.0,46.0,45,29.94,10.0,South,6.9,-,N/A,,Mostly Cloudy,180,2012-11-15 21:53:00
2:53 PM,68.0,42.1,39,29.93,10.0,South,5.8,-,N/A,,Overcast,180,2012-11-15 22:53:00
3:53 PM,64.9,44.1,47,29.93,10.0,South,5.8,-,N/A,,Overcast,190,2012-11-15 23:53:00
4:53 PM,60.1,46.0,60,29.96,10.0,SSW,3.5,-,N/A,,Overcast,200,2012-11-16 00:53:00
5:53 PM,57.0,46.9,69,29.96,10.0,Calm,Calm,-,N/A,,Mostly Cloudy,0,2012-11-16 01:53:00
6:53 PM,53.1,46.0,77,29.97,10.0,Calm,Calm,-,N/A,,Clear,0,2012-11-16 02:53:00
7:53 PM,52.0,46.0,80,29.96,10.0,NW,3.5,-,N/A,,Clear,320,2012-11-16 03:53:00
8:53 PM,53.1,46.9,80,29.99,10.0,Calm,Calm,-,N/A,,Clear,0,2012-11-16 04:53:00
9:53 PM,52.0,46.9,83,29.99,9.0,Calm,Calm,-,N/A,,Partly Cloudy,0,2012-11-16 05:53:00
10:53 PM,52.0,46.9,83,29.99,9.0,Calm,Calm,-,N/A,,Partly Cloudy,0,2012-11-16 06:53:00
11:53 PM,51.1,46.0,83,29.99,9.0,Calm,Calm,-,N/A,,Clear,0,2012-11-16 07:53:00